Weather History for Forrest, WE

Change the Weather History Date:

Friday, December 27, 2013

  Actual Average Record
Temperature  
Mean Temperature 90 °F -  
Max Temperature 115 °F - - ()
Min Temperature 64 °F - - ()
Cooling Degree Days 25    
Growing Degree Days 40 (Base 50)    
Moisture  
Dew Point 44 °F    
Average Humidity 28    
Maximum Humidity 88    
Minimum Humidity 4    
Precipitation  
Precipitation 0.00 in - - ()
Sea Level Pressure  
Sea Level Pressure 29.71 in    
Wind  
Wind Speed 19 mph ()    
Max Wind Speed 37 mph    
Max Gust Speed 47 mph    
T = Trace of Precipitation, MM = Missing Value Source: Averaged Metar Reports

Daily Weather History Graph

Daily Weather History Graph

Search for Another Location

Airport:

Trip Planner

Search our weather history database for the weather conditions in past years. The results will help you decide how hot, cold, wet, or windy it might be!

Date:

Astronomy

Dec. 27, 2013 Rise Set
Actual Time 4:24 AM AWST 6:32 PM AWST
Civil Twilight 3:56 AM AWST 7:00 PM AWST
Nautical Twilight 3:22 AM AWST 7:34 PM AWST
Astronomical Twilight 2:46 AM AWST 8:10 PM AWST
Moon No Moon Rise 1:00 PM AWST (12/27)
Length of Visible Light 15h 03m
Length of Day
14h 08m
Waning Crescent, 34% of the Moon is Illuminated
Dec 27
Waning Crescent
Jan 1
New
Jan 8
First Quarter
Jan 16
Full
Jan 24
Last Quarter

Hourly Weather History & Observations

Time (AWST) Temp. Dew Point Humidity Pressure Visibility Wind Dir Wind Speed Gust Speed Precip Events Conditions
12:00 AM 69 °F 48 °F 36% 29.78 in - ENE 15.0 mph - -  
12:00 AM 69.8 °F 48.2 °F 46% 29.80 in - ENE 15.0 mph - N/A   Unknown
12:30 AM 69.8 °F 46.4 °F 43% 29.77 in - ENE 16.1 mph - N/A   Unknown
1:00 AM 69.8 °F 44.6 °F 40% 29.77 in - ENE 13.8 mph - N/A   Unknown
1:30 AM 68.0 °F 42.8 °F 40% 29.74 in - ENE 12.7 mph - N/A   Unknown
2:00 AM 68 °F 41 °F 26% 29.73 in - ENE 11.5 mph - -  
2:00 AM 68.0 °F 41.0 °F 37% 29.74 in - ENE 11.5 mph - N/A   Unknown
2:30 AM 68.0 °F 41.0 °F 37% 29.74 in - ENE 12.7 mph - N/A   Unknown
3:00 AM 67 °F 40 °F 25% 29.73 in - ENE 11.5 mph - -  
3:00 AM 66.2 °F 39.2 °F 37% 29.74 in - ENE 11.5 mph - N/A   Unknown
3:30 AM 66.2 °F 39.2 °F 37% 29.74 in - ENE 11.5 mph - N/A   Unknown
4:00 AM 68.0 °F 39.2 °F 35% 29.74 in - ENE 12.7 mph - N/A   Unknown
4:30 AM 68.0 °F 39.2 °F 35% 29.74 in - ENE 13.8 mph - N/A   Unknown
5:00 AM 69 °F 39 °F 23% 29.73 in - NE 11.5 mph - -  
5:00 AM 69.8 °F 39.2 °F 33% 29.74 in - NE 11.5 mph - N/A   Unknown
5:30 AM 71.6 °F 39.2 °F 31% 29.74 in - NE 16.1 mph - N/A   Unknown
6:00 AM 75 °F 41 °F 19% 29.74 in - NNE 18.4 mph - -  
6:00 AM 75.2 °F 41.0 °F 29% 29.74 in - NNE 18.4 mph - N/A   Unknown
6:30 AM 80.6 °F 42.8 °F 26% 29.74 in - NNE 18.4 mph - N/A   Unknown
7:00 AM 86.0 °F 44.6 °F 23% 29.74 in - NNE 24.2 mph - N/A   Unknown
7:30 AM 91.4 °F 44.6 °F 20% 29.71 in - NNE 25.3 mph - N/A   Unknown
8:00 AM 94 °F 43 °F 9% 29.70 in - North 25.3 mph - -  
8:00 AM 95.0 °F 42.8 °F 16% 29.71 in - North 25.3 mph - N/A   Unknown
8:30 AM 98.6 °F 41.0 °F 14% 29.68 in - North 25.3 mph - N/A   Unknown
9:00 AM 102 °F 37 °F 5% 29.68 in - North 25.3 mph - -  
9:00 AM 102.2 °F 37.4 °F 11% 29.68 in - North 25.3 mph - N/A   Unknown
9:30 AM 105.8 °F 35.6 °F 9% 29.68 in - North 27.6 mph - N/A   Unknown
10:01 AM 107.6 °F 33.8 °F 8% 29.65 in - North 26.5 mph 38.0 mph N/A   Unknown
10:30 AM 109.4 °F 32.0 °F 7% 29.65 in - NNW 27.6 mph 39.1 mph N/A   Unknown
11:00 AM 111 °F 33 °F 4% 29.62 in - NNW 29.9 mph - -  
11:02 AM 111.2 °F 32.0 °F 7% 29.62 in - NNW 28.8 mph 40.3 mph N/A   Unknown
11:33 AM 113.0 °F 33.8 °F 7% 29.59 in - NNW 27.6 mph 39.1 mph N/A   Unknown
12:00 PM 112 °F 34 °F 4% 29.59 in - NNW 28.8 mph - -  
12:00 PM 111.2 °F 33.8 °F 7% 29.59 in - NNW 28.8 mph - N/A   Unknown
12:07 PM 111.2 °F 32.0 °F 7% 29.59 in - NW 27.6 mph 39.1 mph N/A   Unknown
12:32 PM 113.0 °F 35.6 °F 7% 29.56 in - NW 29.9 mph 41.4 mph N/A   Unknown
1:01 PM 114.8 °F 35.6 °F 7% 29.56 in - WNW 24.2 mph 35.7 mph N/A   Unknown
1:30 PM 114.8 °F 32.0 °F 6% 29.56 in - WNW 25.3 mph 36.8 mph N/A   Unknown
1:32 PM 114.8 °F 32.0 °F 6% 29.56 in - West 20.7 mph 36.8 mph N/A   Unknown
1:39 PM 113.0 °F 33.8 °F 7% 29.56 in - WNW 27.6 mph - N/A   Unknown
1:59 PM 114.8 °F 35.6 °F 7% 29.53 in - WNW 20.7 mph 35.7 mph N/A   Unknown
2:00 PM 113 °F 35 °F 4%  in - WNW 21.9 mph - -  
2:00 PM 113.0 °F 33.8 °F 7% 29.53 in - WNW 21.9 mph 35.7 mph N/A   Unknown
2:38 PM 111.2 °F 39.2 °F 9% 29.56 in - WSW 27.6 mph - N/A   Unknown
2:40 PM 105.8 °F 41.0 °F 11% 29.56 in - SSW 31.1 mph 43.7 mph N/A   Unknown
3:00 PM 103 °F 44 °F 7% 29.57 in - SSW 35.7 mph - -  
3:00 PM 102.2 °F 44.6 °F 14% 29.56 in - SSW 35.7 mph - N/A   Unknown
3:14 PM 104.0 °F 46.4 °F 14% 29.59 in - SSW 34.5 mph 46.0 mph N/A   Unknown
3:30 PM 98.6 °F 46.4 °F 17% 29.59 in - SSW 35.7 mph 47.2 mph N/A   Unknown
4:02 PM 96.8 °F 46.4 °F 18% 29.62 in - South 33.4 mph 44.9 mph N/A   Unknown
4:30 PM 95.0 °F 44.6 °F 18% 29.62 in - SSW 34.5 mph - N/A   Unknown
4:48 PM 93.2 °F 48.2 °F 21% 29.65 in - South 34.5 mph 46.0 mph N/A   Unknown
5:00 PM 91 °F 50 °F 16% 29.65 in - SSW 36.8 mph - -  
5:00 PM 91.4 °F 50.0 °F 24% 29.65 in - SSW 36.8 mph - N/A   Unknown
5:30 PM 87.8 °F 50.0 °F 27% 29.68 in - SSW 32.2 mph - N/A   Unknown
5:59 PM 84.2 °F 50.0 °F 30% 29.71 in - South 27.6 mph 41.4 mph N/A   Unknown
6:00 PM 84 °F 49 °F 19% 29.70 in - South 27.6 mph - -  
6:00 PM 84.2 °F 48.2 °F 29% 29.71 in - South 27.6 mph 43.7 mph N/A   Unknown
6:30 PM 80.6 °F 51.8 °F 37% 29.74 in - South 28.8 mph - N/A   Unknown
7:00 PM 77.0 °F 51.8 °F 41% 29.77 in - South 23.0 mph - N/A   Unknown
7:30 PM 75.2 °F 51.8 °F 44% 29.80 in - South 21.9 mph - N/A   Unknown
7:40 PM 75.2 °F 51.8 °F 44% 29.80 in - South 21.9 mph 33.4 mph N/A   Unknown
8:00 PM 73 °F 52 °F 36% 29.81 in - South 23.0 mph - -  
8:00 PM 73.4 °F 51.8 °F 47% 29.83 in - South 23.0 mph - N/A   Unknown
8:38 PM 71.6 °F 51.8 °F 50% 29.83 in - South 21.9 mph 33.4 mph N/A   Unknown
9:00 PM 70 °F 53 °F 45% 29.85 in - South 25.3 mph - -  
9:00 PM 69.8 °F 53.6 °F 56% 29.86 in - South 25.3 mph - N/A   Unknown
9:05 PM 69.8 °F 53.6 °F 56% 29.86 in - South 21.9 mph 33.4 mph N/A   Unknown
9:30 PM 68.0 °F 55.4 °F 64% 29.89 in - South 24.2 mph - N/A   Unknown
10:00 PM 66.2 °F 57.2 °F 73% 29.92 in - South 18.4 mph - N/A   Unknown
10:30 PM 66.2 °F 59.0 °F 78% 29.92 in - South 13.8 mph - N/A   Unknown
11:00 PM 65 °F 60 °F 80% 29.91 in - South 13.8 mph - -  
11:00 PM 66.2 °F 60.8 °F 83% 29.92 in - South 13.8 mph - N/A   Unknown
11:30 PM 64.4 °F 60.8 °F 88% 29.92 in - South 17.3 mph - N/A   Unknown